Location: *
(46.4000°N, 12.6667°E)
Time: 03:25:41
(UTC+00:00)

Envisat - Pass Details

Date: 12 December 2021
Orbit: 764 x 766 km, 98.2° (Epoch: 16 January)

Event Time Altitude Azimuth Distance (km) Brightness Sun altitude
Rises 16:51:57 0° 222° (SW) 3,223 7.3 -14.7°
Reaches altitude 10° 16:56:02 10° 255° (WSW) 2,304 6.9 -15.3°
Maximum altitude 16:57:42 12° 274° (W) 2,202 6.5 -15.6°
Drops below altitude 10° 16:59:23 10° 293° (WNW) 2,310 6.2 -15.9°
Sets 17:03:31 0° 326° (NNW) 3,243 6.5 -16.6°
